Theta_e
325 324 324 323 323 324 323 322 323 324 323 323 322 322 320 319 318 318 319 317 323 329 329 330 331 332 331 331 332 330 328 326 325 323 323 323 323 322 322 322 321 321 320
326 325 324 323 322 322 322 321 321 321 320 321 321 321 320 319 319 318 319 319 321 326 329 330 331 332 332 333 331 333 332 329 327 325 324 323 323 323 323 322 322 322 322
328 326 325 324 323 323 322 321 321 320 319 320 319 320 320 320 319 318 318 318 319 320 325 329 330 331 332 332 333 332 333 333 329 328 327 326 324 323 324 323 322 323 322
331 330 326 325 326 324 323 321 320 319 318 318 318 318 319 320 320 321 320 320 320 321 322 326 329 330 330 332 333 333 333 334 334 332 329 328 327 325 325 325 324 323 323
332 331 329 329 329 327 326 325 322 320 318 317 318 319 319 319 319 322 321 322 321 321 321 323 322 324 329 330 332 332 333 335 334 334 331 329 328 328 327 327 327 325 325
333 331 330 330 329 327 326 325 324 324 320 318 320 319 319 321 321 320 321 322 321 320 320 320 321 319 320 328 330 331 332 334 334 332 333 331 330 329 328 328 328 328 326
332 331 331 329 328 326 326 326 325 324 323 323 320 320 321 323 323 323 321 322 321 323 321 321 321 322 322 324 328 330 332 333 335 333 333 332 332 331 330 330 329 330 329
331 331 330 329 328 327 326 326 324 322 322 323 318 316 312 316 320 322 322 323 321 322 322 322 322 321 322 322 321 326 330 331 334 334 333 333 332 332 332 332 331 331 330
330 329 330 328 328 327 326 325 324 322 320 321 322 317 310 307 311 318 320 322 322 322 321 321 321 321 321 321 322 322 324 328 331 332 333 333 332 333 333 333 332 332 331
329 328 328 328 327 327 325 325 325 324 322 319 319 321 321 318 312 310 314 315 317 318 319 319 319 318 320 320 317 314 315 320 323 326 328 330 332 332 333 333 332 332 332
309 311 314 317 321 325 326 325 324 323 323 322 320 317 315 317 317 312 310 312 316 317 318 319 319 320 320 320 321 317 314 316 318 319 321 324 327 330 331 332 332 332 332
303 303 305 308 310 311 312 315 320 322 321 321 321 320 317 313 312 311 310 312 311 314 317 319 319 319 319 319 316 310 313 315 317 317 318 319 321 324 327 328 330 332 332
297 298 299 301 301 302 303 303 309 310 308 310 311 313 316 317 317 316 314 311 310 313 312 315 318 319 320 321 319 308 309 312 315 316 316 316 318 319 321 324 326 327 328
293 294 295 296 297 297 297 299 301 301 302 300 299 299 303 304 303 305 306 306 307 309 312 311 314 316 318 319 317 307 315 309 312 315 316 316 316 317 318 319 321 322 323
290 290 292 293 293 293 294 296 296 294 296 296 295 296 296 297 298 297 299 301 300 298 300 308 310 314 316 317 315 318 319 311 310 313 313 314 315 316 316 317 318 319 321
288 289 290 290 290 291 291 291 292 291 292 293 292 292 292 293 294 295 296 295 294 293 291 296 297 300 303 305 307 312 316 305 308 308 310 311 312 313 314 315 316 317 318
286 287 287 288 288 288 288 288 288 288 289 289 290 290 290 291 291 291 290 291 292 292 288 289 292 294 295 297 299 302 306 312 314 307 307 309 310 310 311 312 313 314 315
284 285 286 286 286 285 286 286 286 286 286 287 288 289 288 289 287 287 288 288 287 289 287 285 288 289 290 293 294 296 299 301 305 307 308 309 309 309 309 309 309 310 310
283 283 284 283 284 284 284 285 285 285 286 286 286 285 285 285 284 284 284 285 286 286 285 284 284 287 289 290 290 292 293 295 297 299 302 303 305 306 308 308 307 307 305
281 282 282 282 283 283 283 283 283 284 284 284 285 284 283 283 281 282 282 282 282 281 281 281 281 283 284 287 288 287 287 290 291 293 295 296 300 302 303 305 304 303 302
280 280 281 281 282 282 283 282 281 282 282 282 282 282 283 282 283 282 281 280 280 279 279 279 279 279 280 281 281 285 284 286 288 289 288 290 293 292 295 301 300 299 301
279 279 279 279 280 281 283 283 281 280 280 279 279 279 280 280 280 280 281 282 281 279 279 278 279 279 280 280 282 282 282 282 280 286 284 285 288 288 290 294 300 301 302
277 277 278 278 278 278 282 282 280 279 278 278 278 277 277 278 278 278 280 280 280 281 281 280 277 277 277 279 280 280 282 282 282 285 285 284 287 287 290 293 297 300 301
276 276 277 277 277 277 280 281 279 278 277 277 277 277 276 277 277 278 277 276 276 276 278 278 277 277 278 280 280 281 282 284 285 286 287 282 286 286 289 292 296 299 299
275 275 276 276 275 275 279 280 277 276 276 275 276 276 276 275 277 279 276 274 273 275 278 278 278 278 279 280 279 276 274 274 274 277 283 284 285 286 287 289 292 296 298
275 275 275 275 275 274 277 279 277 275 274 273 274 274 276 275 277 277 274 272 271 273 272 271 272 273 275 274 276 274 273 270 271 271 279 279 282 284 282 288 289 290 291
Wind_Speed
4 4 4 4 4 5 5 5 5 6 6 7 6 6 6 6 6 3 3 10 12 15 16 18 19 19 19 18 22 21 20 20 19 19 19 19 19 18 19 18 18 17 17
5 5 5 5 5 4 5 5 5 5 4 5 6 6 7 6 6 6 4 5 13 16 18 19 21 22 22 21 20 23 24 22 22 22 21 22 21 21 21 20 20 20 19
7 6 5 5 5 5 6 5 4 4 4 4 6 6 6 7 7 8 6 5 5 14 16 21 22 24 24 24 23 23 23 25 24 23 22 23 23 23 23 23 22 22 22
9 8 5 5 5 5 4 4 4 4 5 5 5 5 5 6 8 8 7 7 7 8 13 21 22 24 26 26 26 25 24 23 26 24 23 24 24 25 25 24 24 24 23
10 9 8 7 6 5 5 5 5 4 4 5 5 6 5 5 6 7 10 11 11 11 8 12 20 21 23 27 28 28 27 25 24 24 25 25 26 26 25 25 24 26 25
6 8 7 7 6 5 6 6 7 5 5 5 5 6 4 5 5 6 8 8 8 10 10 11 9 9 20 24 28 30 30 28 26 25 24 27 28 28 28 27 27 27 28
9 6 7 7 5 5 7 7 5 7 6 4 3 6 7 9 8 8 6 9 10 9 8 9 8 8 9 23 26 30 32 33 29 28 27 26 29 30 30 30 30 30 29
9 7 4 5 5 4 5 6 5 3 2 2 3 2 3 3 8 10 9 9 10 7 9 11 10 10 10 8 11 24 30 32 31 31 29 29 29 30 32 32 33 32 32
9 8 6 4 4 3 3 5 4 5 6 3 7 4 3 4 2 4 9 8 9 7 9 9 8 9 10 10 11 14 22 26 30 31 32 32 31 31 31 32 33 33 33
2 2 4 4 4 3 4 4 4 5 5 5 3 7 9 6 5 4 2 4 4 6 7 5 6 7 9 8 12 14 14 19 25 28 31 32 32 32 32 32 32 32 33
11 9 8 9 8 3 3 4 4 5 6 6 4 3 3 4 6 5 9 4 3 7 8 9 9 9 11 9 10 13 18 21 20 23 26 28 28 30 32 33 33 33 33
7 11 10 9 9 8 8 8 8 6 5 4 4 4 4 3 3 3 5 9 10 6 7 7 7 8 8 8 9 15 18 19 22 23 24 26 27 29 30 32 33 33 33
7 10 10 9 8 9 9 8 9 10 9 9 10 8 7 6 5 7 7 10 8 7 4 5 7 6 7 6 9 14 15 19 22 21 21 24 27 28 30 30 31 32 33
6 9 9 9 10 11 10 8 7 8 10 10 13 11 7 8 9 8 8 11 11 8 7 7 2 7 4 8 11 14 11 16 20 22 24 25 27 27 27 29 31 32 32
8 8 8 9 10 10 10 9 9 9 9 9 9 10 8 9 8 7 7 7 6 9 10 9 9 10 12 9 9 13 12 16 17 22 24 25 28 25 26 29 31 31 32
7 8 8 9 9 10 11 10 8 10 9 8 8 10 8 7 7 6 8 8 6 6 8 8 10 14 15 13 15 16 16 16 18 16 21 24 25 24 28 29 29 30 31
7 8 8 9 9 12 12 10 10 11 11 9 9 9 10 9 7 8 8 7 7 9 12 10 11 12 15 16 17 17 16 15 12 17 19 22 23 25 27 27 28 29 31
7 8 8 9 11 11 11 11 11 10 9 10 10 10 11 9 11 10 8 11 9 9 11 18 13 12 13 15 15 18 15 14 16 17 19 21 21 25 27 26 28 28 29
8 9 9 9 11 11 11 11 10 9 9 9 9 10 10 11 10 10 9 9 8 9 10 11 13 10 11 12 15 12 14 15 13 21 26 29 24 23 25 25 25 25 26
8 8 8 9 11 10 11 11 9 9 8 9 9 10 10 11 12 11 10 11 11 10 10 10 12 11 11 12 11 14 16 12 14 15 18 21 25 26 24 24 26 24 23
7 7 7 8 9 10 9 11 9 7 8 8 8 9 8 11 16 18 10 12 12 11 10 11 11 12 12 13 14 13 15 15 15 14 13 13 14 16 18 22 18 22 23
7 7 7 7 9 8 16 18 11 7 8 8 8 9 8 10 13 19 20 21 16 13 13 12 11 15 16 17 15 14 15 17 19 9 11 17 13 16 15 15 27 26 24
5 6 6 6 7 8 16 18 15 6 7 8 9 9 9 8 11 12 16 18 15 20 18 14 15 15 19 17 18 19 17 17 18 17 15 20 13 17 15 16 28 32 30
5 4 5 6 6 7 15 17 14 6 7 7 8 8 8 9 13 15 13 13 12 12 12 11 14 15 15 18 16 17 19 20 16 14 12 19 13 16 15 15 28 28 29
5 4 4 5 5 5 13 16 11 6 7 7 8 7 8 10 22 24 14 12 12 10 13 21 22 25 25 24 22 13 12 14 15 15 14 17 14 16 14 15 15 27 31
5 3 4 5 5 5 11 15 13 5 7 7 7 8 14 18 22 22 12 11 12 14 15 15 14 15 16 16 22 12 11 14 14 14 7 14 18 16 20 15 10 9 10
Wind_Direction
209 204 217 210 201 197 200 208 207 214 215 216 223 240 238 247 260 260 259 213 213 222 233 243 247 249 247 244 233 229 227 231 227 228 235 238 235 234 238 229 231 229 228
208 208 210 212 214 209 211 207 210 224 235 227 236 231 230 227 234 242 243 240 221 221 228 240 246 248 249 247 243 236 233 229 228 227 227 234 237 235 236 236 231 232 230
207 220 210 210 207 211 220 221 228 220 226 237 235 230 231 228 229 233 235 235 232 223 226 236 242 247 249 250 249 246 240 234 230 226 224 226 231 235 237 234 234 235 234
202 218 228 220 211 206 204 205 213 230 228 218 224 231 232 228 232 234 230 228 228 242 233 231 232 236 243 247 248 249 247 246 235 230 224 226 226 229 232 236 233 234 235
210 220 230 230 224 222 219 210 217 202 226 230 230 237 225 228 228 234 236 237 237 238 236 226 229 233 236 242 247 247 247 246 246 232 229 224 226 229 230 231 232 232 232
250 211 226 227 228 232 231 230 233 228 219 223 241 256 257 247 225 238 251 251 245 239 242 244 237 232 233 236 245 249 248 247 244 243 232 228 226 226 227 228 229 230 232
248 227 213 220 221 223 234 238 244 236 246 245 278 265 260 261 262 255 236 245 249 254 252 249 243 236 231 231 239 244 247 250 246 244 240 235 229 229 228 228 230 228 228
226 258 245 212 206 213 234 230 229 253 257 186 245 270 272 260 236 240 243 249 246 246 250 251 252 244 238 234 229 238 248 248 249 247 244 241 237 231 230 230 230 231 230
209 223 233 229 219 216 226 229 223 214 252 231 214 229 273 244 311 231 231 233 238 246 253 261 262 253 246 240 243 242 239 246 251 250 247 244 243 241 237 233 233 234 235
253 326 270 231 218 218 227 233 231 232 222 245 220 219 232 245 273 282 315 292 270 256 274 257 263 262 261 249 242 244 248 237 244 252 254 250 247 248 245 242 239 235 235
45 33 32 32 21 330 263 239 242 237 243 256 259 262 266 262 263 274 295 272 241 238 243 243 238 243 247 244 242 239 239 244 246 244 252 256 256 255 253 253 248 243 240
33 30 21 24 26 19 15 9 351 305 271 253 264 273 274 271 266 241 275 294 288 278 255 260 262 253 254 252 260 247 240 240 242 244 249 251 251 252 252 255 261 258 251
30 22 18 24 26 22 25 8 20 30 16 19 23 12 346 306 293 278 277 279 279 289 271 249 255 263 262 256 252 256 256 250 247 243 245 252 254 256 254 253 252 253 254
34 21 16 27 31 31 23 21 27 26 26 27 27 16 360 8 2 358 353 346 322 306 299 288 261 284 260 267 267 266 267 257 253 255 255 252 251 251 253 253 255 255 252
34 24 23 30 33 32 26 27 47 27 29 26 28 19 10 16 357 353 355 359 349 322 312 317 336 356 334 318 293 285 277 266 251 251 251 252 252 251 248 252 252 253 257
34 33 32 42 37 41 39 35 39 25 28 25 32 16 17 3 5 353 11 3 353 328 293 347 324 330 333 326 327 323 305 283 271 262 257 256 257 253 253 251 251 253 254
33 36 39 45 40 50 37 34 36 33 34 23 25 16 16 6 14 17 4 351 353 349 320 325 322 326 326 326 325 324 320 319 299 280 268 257 257 257 257 255 254 254 253
44 48 51 50 53 45 39 39 32 28 28 30 22 22 21 16 15 5 4 8 347 337 330 319 325 325 329 325 322 324 321 315 313 313 305 290 282 267 261 259 257 256 257
43 45 49 52 59 45 35 27 28 22 24 29 24 22 20 15 11 5 2 356 353 335 323 315 314 319 320 324 322 321 316 318 316 320 327 320 300 280 269 266 265 261 258
60 54 46 54 67 48 39 29 14 25 26 35 31 24 20 25 9 6 8 358 348 339 331 324 322 322 327 330 321 322 319 316 318 312 309 301 304 298 285 278 269 263 256
60 67 62 52 64 51 34 32 10 28 34 30 29 26 22 35 15 17 358 352 345 342 334 331 325 325 333 334 330 324 311 310 311 307 311 303 318 311 306 304 279 268 261
54 52 56 67 59 50 38 33 30 22 34 26 22 20 15 21 16 5 360 356 353 347 337 331 328 326 325 325 320 318 310 312 312 286 320 303 303 298 294 286 285 272 266
61 57 55 43 76 47 35 33 32 22 31 22 22 13 10 12 0 356 354 354 354 349 344 341 332 324 316 319 314 309 305 298 292 297 300 293 303 293 292 286 282 278 270
67 56 58 53 56 42 32 32 30 25 29 21 18 13 6 8 354 354 357 351 352 345 341 337 321 313 311 317 316 311 316 299 287 285 276 284 294 288 292 292 290 284 279
73 72 75 72 56 43 28 29 33 24 18 15 7 7 358 4 356 356 355 348 341 331 332 331 326 323 324 329 333 328 333 328 315 308 315 290 292 288 296 296 291 279 269
83 72 66 79 60 60 21 26 31 20 10 9 353 360 5 2 356 354 353 352 336 339 341 334 330 325 325 327 334 337 328 321 314 308 355 317 306 310 300 293 286 301 285